TimeEST,TemperatureF,Dew PointF,Humidity,Sea Level PressureIn,VisibilityMPH,Wind Direction,Wind SpeedMPH,Gust SpeedMPH,PrecipitationIn,Events,Conditions,WindDirDegrees,DateUTC
12:17 AM,10.4,4.6,78,29.92,7.0,South,3.5,-,N/A,Snow,Light Snow,180,2013-01-02 05:17:00
12:37 AM,10.2,4.6,78,29.92,7.0,SSE,3.5,-,N/A,Snow,Light Snow,160,2013-01-02 05:37:00
12:57 AM,10.4,5.2,79,29.92,7.0,South,3.5,-,N/A,Snow,Light Snow,190,2013-01-02 05:57:00
1:17 AM,10.4,5.7,81,29.92,7.0,SSW,6.9,-,N/A,Snow,Light Snow,200,2013-01-02 06:17:00
1:37 AM,10.4,5.9,82,29.92,7.0,SSW,6.9,-,N/A,Snow,Light Snow,210,2013-01-02 06:37:00
1:57 AM,10.8,6.6,83,29.92,7.0,SSW,5.8,-,N/A,Snow,Light Snow,210,2013-01-02 06:57:00
2:17 AM,10.9,6.8,83,29.92,10.0,SSW,6.9,-,N/A,Snow,Light Snow,210,2013-01-02 07:17:00
2:37 AM,11.3,7.5,85,29.92,5.0,SW,3.5,-,N/A,Snow,Light Snow,220,2013-01-02 07:37:00
2:57 AM,11.3,7.5,85,29.93,5.0,SW,4.6,-,N/A,Snow,Light Snow,230,2013-01-02 07:57:00
3:17 AM,12.2,8.4,85,29.94,7.0,WSW,5.8,-,N/A,Snow,Light Snow,250,2013-01-02 08:17:00
3:36 AM,12.9,9.3,86,29.94,7.0,WSW,4.6,-,N/A,Snow,Light Snow,250,2013-01-02 08:36:00
3:57 AM,14.0,10.4,86,29.94,7.0,WSW,4.6,-,N/A,Snow,Light Snow,250,2013-01-02 08:57:00
4:17 AM,14.0,10.4,86,29.94,7.0,West,3.5,-,N/A,Snow,Light Snow,260,2013-01-02 09:17:00
4:36 AM,14.0,10.8,87,29.94,7.0,WSW,4.6,-,N/A,Snow,Light Snow,250,2013-01-02 09:36:00
4:57 AM,14.7,11.3,86,29.95,7.0,WSW,5.8,-,N/A,Snow,Light Snow,240,2013-01-02 09:57:00
5:16 AM,14.9,11.7,87,29.95,10.0,WSW,6.9,-,N/A,Snow,Light Snow,250,2013-01-02 10:16:00
5:37 AM,15.4,12.0,86,29.96,10.0,West,5.8,-,N/A,Snow,Light Snow,260,2013-01-02 10:37:00
5:57 AM,15.8,12.2,86,29.96,10.0,West,5.8,-,N/A,Snow,Light Snow,260,2013-01-02 10:57:00
6:50 AM,15.8,12.2,86,29.97,10.0,West,4.6,-,N/A,Snow,Light Snow,260,2013-01-02 11:50:00
7:50 AM,15.8,14.0,93,29.98,10.0,WSW,4.6,-,N/A,,Overcast,250,2013-01-02 12:50:00
8:20 AM,15.8,14.0,93,29.98,10.0,West,3.5,-,N/A,,Overcast,260,2013-01-02 13:20:00
8:50 AM,15.8,14.0,93,29.98,7.0,WSW,3.5,-,N/A,Snow,Light Snow,240,2013-01-02 13:50:00
9:50 AM,17.6,14.0,86,29.99,4.0,SW,3.5,-,N/A,Snow,Light Snow,220,2013-01-02 14:50:00
10:50 AM,17.6,15.8,93,30.01,7.0,SSW,4.6,-,N/A,Snow,Light Snow,210,2013-01-02 15:50:00
11:50 AM,19.4,15.8,86,30.01,10.0,SW,8.1,-,N/A,Snow,Light Snow,230,2013-01-02 16:50:00
12:50 PM,19.4,15.8,86,29.99,10.0,SW,8.1,-,N/A,Snow,Light Snow,230,2013-01-02 17:50:00
1:50 PM,19.4,14.0,80,29.97,10.0,SSW,10.4,-,N/A,,Overcast,200,2013-01-02 18:50:00
2:50 PM,19.4,14.0,80,29.96,10.0,SSW,10.4,-,N/A,,Overcast,200,2013-01-02 19:50:00
3:50 PM,19.4,14.0,80,29.96,10.0,South,6.9,-,N/A,,Overcast,190,2013-01-02 20:50:00
4:50 PM,19.4,14.0,80,29.97,10.0,South,11.5,-,N/A,,Overcast,190,2013-01-02 21:50:00
5:50 PM,19.4,14.0,80,29.98,10.0,South,8.1,-,N/A,,Overcast,190,2013-01-02 22:50:00
6:55 PM,19.4,14.0,80,29.98,10.0,SSW,10.4,-,N/A,,Overcast,200,2013-01-02 23:55:00
7:50 PM,19.4,14.0,80,29.96,10.0,South,9.2,-,N/A,,Overcast,190,2013-01-03 00:50:00
8:50 PM,17.6,14.0,86,29.96,10.0,SSW,9.2,-,N/A,,Overcast,200,2013-01-03 01:50:00
9:47 PM,17.6,14.0,86,29.95,10.0,SSW,11.5,-,N/A,,Overcast,200,2013-01-03 02:47:00
10:17 PM,18.3,14.9,86,29.95,7.0,SSW,11.5,-,N/A,Snow,Light Snow,210,2013-01-03 03:17:00
10:37 PM,18.3,14.9,86,29.95,10.0,SSW,10.4,-,N/A,Snow,Light Snow,210,2013-01-03 03:37:00
10:56 PM,18.3,14.9,86,29.95,10.0,SW,9.2,-,N/A,,Overcast,220,2013-01-03 03:56:00
11:17 PM,18.3,14.9,86,29.96,10.0,SW,6.9,-,N/A,,Overcast,230,2013-01-03 04:17:00
11:37 PM,18.3,14.9,86,29.95,10.0,SW,8.1,-,N/A,Snow,Light Snow,230,2013-01-03 04:37:00
11:56 PM,18.3,14.9,86,29.95,10.0,SW,6.9,-,N/A,Snow,Light Snow,230,2013-01-03 04:56:00